Weather History for KBMG - December, 2003

Change the Weather History Date:

Monday, December 15, 2003

  Actual Average Record
Temperature  
Mean Temperature 30 °F 32 °F  
Max Temperature 35 °F 40 °F 61 °F (2011)
Min Temperature 24 °F 24 °F -1 °F (2010)
Degree Days  
Heating Degree Days 36 33  
Month to date heating degree days 463  
Since 1 July heating degree days 1519  
Cooling Degree Days 0 0  
Month to date cooling degree days 0  
Year to date cooling degree days 927  
Moisture  
Dew Point 28 °F    
Average Humidity 97    
Maximum Humidity 100    
Minimum Humidity 85    
Precipitation  
Precipitation 0.00 in 0.09 in 0.72 in (2007)
Month to date precipitation 1.54  
Year to date precipitation 45.55  
Sea Level Pressure  
Sea Level Pressure 30.01 in    
Wind  
Wind Speed 9 mph (South)    
Max Wind Speed 16 mph    
Max Gust Speed 22 mph    
Visibility 4 miles    
Events      
T = Trace of Precipitation, MM = Missing Value Source: NWS Daily Summary

Daily Weather History Graph

Daily Weather History Graph

Search for Another Location

Airport or City:

Trip Planner

Search our weather history database for the weather conditions in past years. The results will help you decide how hot, cold, wet, or windy it might be!

Date:

Astronomy

Dec. 15, 2003 Rise Set
Actual Time 7:58 AM EST 5:24 PM EST
Civil Twilight 7:28 AM EST 5:54 PM EST
Nautical Twilight 6:54 AM EST 6:28 PM EST
Astronomical Twilight 6:22 AM EST 7:00 PM EST
Moon 11:58 PM EST (12/15) 12:46 PM EST (12/15)
Length of Visible Light 10h 26m
Length of Day
9h 26m
Waning Gibbous, 61% of the Moon is Illuminated
Dec 15
Waning Gibbous
Dec 16
Last Quarter
Dec 23
New
Dec 30
First Quarter
Jan 7
Full

Hourly Weather History & Observations

Time (EST) Temp. Windchill Dew Point Humidity Pressure Visibility Wind Dir Wind Speed Gust Speed Precip Events Conditions
12:12 AM 26.6 °F 20.0 °F 26.6 °F 100% 30.02 in 4.0 mi SW 5.8 mph - N/A   Overcast
12:53 AM 25.0 °F 16.3 °F 25.0 °F 100% 30.06 in 3.0 mi SW 8.1 mph - N/A   Overcast
1:02 AM 24.8 °F 16.1 °F 24.8 °F 100% 30.03 in 2.5 mi SW 8.1 mph - N/A   Overcast
1:15 AM 24.8 °F 16.1 °F 24.8 °F 100% 30.03 in 3.0 mi WSW 8.1 mph - N/A   Overcast
1:32 AM 24.8 °F 15.3 °F 24.8 °F 100% 30.03 in 2.5 mi SSW 9.2 mph - N/A   Overcast
1:53 AM 26.1 °F 16.2 °F 26.1 °F 100% 30.06 in 2.0 mi SSW 10.4 mph - N/A   Overcast
2:12 AM 26.6 °F 18.2 °F 26.6 °F 100% 30.04 in 1.8 mi SW 8.1 mph - N/A   Overcast
2:53 AM 26.1 °F 18.4 °F 26.1 °F 100% 30.07 in 1.2 mi SW 6.9 mph - N/A   Overcast
3:01 AM 24.8 °F 14.0 °F 24.8 °F 100% 30.05 in 1.2 mi SW 11.5 mph - N/A   Overcast
3:23 AM 24.8 °F 16.1 °F 24.8 °F 100% 30.05 in 0.8 mi SSW 8.1 mph - N/A   Overcast
3:33 AM 24.8 °F 15.3 °F 24.8 °F 100% 30.04 in 1.2 mi SSW 9.2 mph - N/A   Overcast
3:53 AM 25.0 °F 17.1 °F 25.0 °F 100% 30.06 in 1.0 mi South 6.9 mph - N/A   Overcast
4:16 AM 24.8 °F 16.1 °F 24.8 °F 100% 30.03 in 2.0 mi South 8.1 mph - N/A   Overcast
4:25 AM 24.8 °F 15.3 °F 24.8 °F 100% 30.03 in 1.0 mi South 9.2 mph - N/A   Overcast
4:53 AM 25.0 °F 16.3 °F 25.0 °F 100% 30.05 in 1.2 mi South 8.1 mph - N/A   Overcast
5:53 AM 26.1 °F 16.2 °F 26.1 °F 100% 30.07 in 1.2 mi South 10.4 mph - N/A   Overcast
6:53 AM 27.0 °F 18.7 °F 27.0 °F 100% 30.07 in 1.8 mi South 8.1 mph - N/A   Overcast
7:39 AM 26.6 °F 18.2 °F 26.6 °F 100% 30.05 in 2.0 mi South 8.1 mph - N/A   Overcast
7:53 AM 27.0 °F 18.0 °F 27.0 °F 100% 30.08 in 2.0 mi South 9.2 mph - N/A   Overcast
8:01 AM 26.6 °F 16.8 °F 26.6 °F 100% 30.05 in 2.0 mi South 10.4 mph - N/A   Overcast
8:11 AM 26.6 °F 17.5 °F 26.6 °F 100% 30.05 in 1.2 mi South 9.2 mph - N/A   Overcast
8:53 AM 28.0 °F 18.1 °F 28.0 °F 100% 30.09 in 2.0 mi South 11.5 mph - N/A   Overcast
9:53 AM 28.0 °F 19.3 °F 28.0 °F 100% 30.08 in 2.0 mi SSE 9.2 mph - N/A   Overcast
10:53 AM 28.9 °F 19.8 °F 28.9 °F 100% 30.09 in 2.5 mi SSE 10.4 mph - N/A   Overcast
11:02 AM 28.4 °F 19.7 °F 28.4 °F 100% 30.05 in 3.0 mi SSE 9.2 mph - N/A   Overcast
11:53 AM 30.0 °F 20.0 °F 30.0 °F 100% 30.06 in 3.0 mi SSE 12.7 mph - N/A   Overcast
12:04 PM 30.2 °F 20.8 °F 30.2 °F 100% 30.03 in 3.0 mi SSE 11.5 mph - N/A   Overcast
12:35 PM 30.2 °F 19.8 °F 30.2 °F 100% 30.01 in 3.0 mi SE 13.8 mph - N/A   Overcast
12:53 PM 30.0 °F 20.5 °F 30.0 °F 100% 30.03 in 3.0 mi SSE 11.5 mph - N/A   Overcast
1:53 PM 32.0 °F 22.1 °F 30.9 °F 96% 29.98 in 5.0 mi SE 13.8 mph - N/A   Overcast
2:53 PM 33.1 °F 23.4 °F 30.9 °F 92% 29.94 in 7.0 mi SE 13.8 mph 21.9 mph N/A   Scattered Clouds
3:53 PM 34.0 °F 25.0 °F 30.9 °F 89% 29.91 in 8.0 mi SE 12.7 mph 21.9 mph N/A   Clear
4:53 PM 35.1 °F 25.9 °F 30.9 °F 85% 29.91 in 9.0 mi SSE 13.8 mph - N/A   Clear
5:53 PM 35.1 °F 25.2 °F 30.9 °F 85% 29.89 in 10.0 mi SSE 16.1 mph - N/A   Clear
6:53 PM 34.0 °F 24.6 °F 30.9 °F 89% 29.88 in 10.0 mi SSE 13.8 mph 20.7 mph N/A   Clear
7:53 PM 34.0 °F 24.6 °F 30.9 °F 89% 29.86 in 10.0 mi SE 13.8 mph - N/A   Clear
8:53 PM 35.1 °F 26.4 °F 30.9 °F 85% 29.86 in 10.0 mi SSE 12.7 mph - N/A   Clear
9:53 PM 34.0 °F 26.6 °F 30.9 °F 89% 29.86 in 10.0 mi SSE 9.2 mph - N/A   Clear
10:53 PM 34.0 °F 26.6 °F 30.9 °F 89% 29.86 in 10.0 mi SSE 9.2 mph - N/A   Clear
11:53 PM 34.0 °F 26.6 °F 30.9 °F 89% 29.84 in 10.0 mi SSE 9.2 mph - N/A   Clear